Terug naar catalogus

STARLINK-31246

ActiefCommunicatieVLEO
NORAD 58835·PAYLOAD·🇺🇸 United States

Gelanceerd Jan 24, 2024 vanaf Vandenberg Space Force Base

Loading…

Volgende Passages (komende 24 uur)

TLE

VersSource: CelesTrak SupGP

Epoch: Sep 14, 2026, 20:41 UTC

1 58835C 24017K   26257.86229167  .00042647  00000+0  12604-2 0  2570
2 58835  53.1597  44.2537 0001113  77.5915 112.6202 15.34358884    10

Volg STARLINK-31246 in realtime met AllMySat

Download on the App Store